Weather History for Norfolk, NE

Change the Weather History Date:

Tuesday, September 3, 2013

  Actual Average Record
Temperature  
Mean Temperature 70 °F 69 °F  
Max Temperature 86 °F 81 °F 98 °F (1925)
Min Temperature 53 °F 57 °F 34 °F (1974)
Degree Days  
Heating Degree Days 0 1  
Month to date heating degree days 0 3  
Since 1 July heating degree days 16 19  
Cooling Degree Days 5 5  
Month to date cooling degree days 13 17  
Year to date cooling degree days 837 833  
Growing Degree Days 20 (Base 50)    
Moisture  
Dew Point 58 °F    
Average Humidity 71    
Maximum Humidity 93    
Minimum Humidity 48    
Precipitation  
Precipitation 0.00 in 0.09 in 1.97 in (1989)
Month to date precipitation T 0.28  
Year to date precipitation 18.41 20.81  
Snow  
Snow 0.00 in 0.00 in - ()
Month to date snowfall 0.0 0.0  
Since 1 July snowfall 0.0 0.0  
Snow Depth 0.00 in    
Sea Level Pressure  
Sea Level Pressure 30.03 in    
Wind  
Wind Speed 8 mph (SSE)    
Max Wind Speed 20 mph    
Max Gust Speed 24 mph    
Visibility 10 miles    
Events      
T = Trace of Precipitation, MM = Missing Value Source: NWS Daily Summary

Daily Weather History Graph

Daily Weather History Graph

Search for Another Location

Airport:

Trip Planner

Search our weather history database for the weather conditions in past years. The results will help you decide how hot, cold, wet, or windy it might be!

Date:

Astronomy

Sep. 03, 2013 Rise Set
Actual Time 6:57 AM CDT 7:59 PM CDT
Civil Twilight 6:29 AM CDT 8:27 PM CDT
Nautical Twilight 5:55 AM CDT 9:01 PM CDT
Astronomical Twilight 5:19 AM CDT 9:37 PM CDT
Moon 5:11 AM CDT (9/3) 6:47 PM CDT (9/3)
Length of Visible Light 13h 58m
Length of Day
13h 01m
Waning Crescent, 3% of the Moon is Illuminated
Sep 3
Waning Crescent
Sep 5
New
Sep 12
First Quarter
Sep 19
Full
Sep 26
Last Quarter

Hourly Weather History & Observations

Time (CDT) Temp. Heat Index Dew Point Humidity Pressure Visibility Wind Dir Wind Speed Gust Speed Precip Events Conditions
12:56 AM 59.0 °F - 53.1 °F 81% 30.03 in 10.0 mi ESE 3.5 mph - N/A   Clear
1:56 AM 57.9 °F - 52.0 °F 81% 30.04 in 10.0 mi Calm Calm - N/A   Clear
2:56 AM 57.0 °F - 52.0 °F 83% 30.04 in 10.0 mi Calm Calm - N/A   Clear
3:56 AM 54.0 °F - 51.1 °F 90% 30.05 in 10.0 mi Calm Calm - N/A   Clear
4:56 AM 54.0 °F - 51.1 °F 90% 30.06 in 10.0 mi Calm Calm - N/A   Clear
5:56 AM 55.9 °F - 52.0 °F 87% 30.05 in 10.0 mi East 3.5 mph - N/A   Clear
6:56 AM 54.0 °F - 51.1 °F 90% 30.07 in 10.0 mi Calm Calm - N/A   Clear
7:56 AM 57.9 °F - 55.0 °F 90% 30.07 in 10.0 mi ESE 4.6 mph - N/A   Clear
8:56 AM 64.9 °F - 57.0 °F 75% 30.07 in 10.0 mi SSE 5.8 mph - N/A   Clear
9:56 AM 72.0 °F - 60.1 °F 66% 30.06 in 10.0 mi South 10.4 mph - N/A   Clear
10:56 AM 77.0 °F - 62.1 °F 60% 30.06 in 10.0 mi South 8.1 mph - N/A   Clear
11:56 AM 80.1 °F 81.2 °F 62.1 °F 54% 30.04 in 10.0 mi SSW 11.5 mph - N/A   Clear
12:56 PM 82.0 °F 83.0 °F 62.1 °F 51% 30.04 in - SSW 12.7 mph 19.6 mph N/A   Unknown
1:56 PM 84.0 °F 84.5 °F 62.1 °F 47% 30.02 in 10.0 mi South 16.1 mph - N/A   Clear
2:56 PM 84.9 °F 85.9 °F 63.0 °F 48% 30.00 in 10.0 mi South 13.8 mph 19.6 mph N/A   Clear
3:56 PM 84.9 °F 85.9 °F 63.0 °F 48% 29.99 in 10.0 mi SSE 16.1 mph 23.0 mph N/A   Clear
4:56 PM 82.9 °F 84.0 °F 63.0 °F 51% 29.99 in 10.0 mi SSE 12.7 mph - N/A   Clear
5:56 PM 82.9 °F 84.0 °F 63.0 °F 51% 30.00 in 10.0 mi SSE 10.4 mph - N/A   Clear
6:56 PM 82.0 °F 83.1 °F 63.0 °F 52% 30.00 in 10.0 mi SSE 9.2 mph - N/A   Clear
7:56 PM 77.0 °F - 63.0 °F 62% 29.99 in 10.0 mi South 5.8 mph - N/A   Clear
8:56 PM 75.9 °F - 62.1 °F 62% 29.99 in 10.0 mi SSE 9.2 mph - N/A   Clear
9:56 PM 75.9 °F - 60.1 °F 58% 29.98 in 10.0 mi South 13.8 mph - N/A   Clear
10:56 PM 73.9 °F - 59.0 °F 59% 30.00 in 10.0 mi South 9.2 mph - N/A   Clear
11:56 PM 72.0 °F - 59.0 °F 64% 29.99 in 10.0 mi South 9.2 mph - N/A   Clear